Location: Berlise
(49.6641°N, 4.1077°E)
Time: 20:09:57
(UTC+00:00)

MOS 1 Rocket - Pass Details

Date: 27 January 2021
Orbit: 614 x 830 km, 97.4° (Epoch: 27 February)

Event Time Altitude Azimuth Distance (km) Brightness Sun altitude
Rises 05:51:20 0° 192° (SSW) 3,152 6.7 -14.7°
Reaches altitude 10° 05:53:54 10° 203° (SSW) 2,197 5.8 -14.3°
Maximum altitude 05:58:08 31° 265° (W) 1,213 4.0 -13.6°
Drops below altitude 10° 06:02:12 10° 328° (NNW) 2,096 5.4 -13.0°
Enters shadow 06:02:34 - 330° (NNW) 2,222 5.5 -12.9°
